Wind_Speed
5 4 3 3 1 1 1 3 4 2 1 2 2 1 1 2 2 3 2 2 3 3 4 6 7 5 3 4 4 4 6 1 6 3 3 3 4 0 4 5 4 5 5 6 6 7 6 5 5 5 5 5 5 5 4 4 4 4 4 4 4 4 4 3 3 2 2 2 1 0 0 1 1 1 2 1 1 0 1 1 2 2 3 3 4
7 5 4 3 2 1 2 3 3 1 3 3 0 1 2 2 2 2 1 2 4 4 5 7 7 4 3 6 7 4 3 1 4 5 2 4 5 2 4 4 4 4 5 6 6 6 6 6 6 6 5 5 5 5 5 4 4 3 3 3 3 3 3 3 2 2 1 1 1 1 2 1 1 1 1 1 1 1 1 1 2 2 3 4 4
6 5 4 3 3 2 2 2 3 2 2 2 1 0 1 2 2 0 0 2 4 4 4 6 6 4 5 8 8 5 2 1 4 5 1 4 5 2 4 5 5 5 5 6 6 6 6 7 7 7 6 6 6 5 5 5 4 4 3 3 3 3 3 3 2 2 2 2 2 3 3 2 3 3 3 3 3 2 2 2 2 3 3 4 4
6 6 4 3 3 2 2 2 2 3 1 0 0 1 1 1 2 1 2 3 3 3 4 7 5 3 5 5 5 6 7 6 7 3 5 6 5 3 5 6 6 5 4 6 7 7 6 7 7 7 7 7 6 6 6 5 5 5 4 4 3 3 3 3 3 3 3 3 3 3 3 3 4 4 4 4 4 4 4 4 4 4 5 5 5
8 6 5 5 5 3 3 2 2 2 1 2 1 0 1 1 2 3 3 3 2 3 4 5 3 3 5 3 3 8 9 5 6 5 7 6 5 5 5 5 5 4 4 5 7 7 7 7 7 8 8 7 7 7 7 6 6 6 6 6 5 4 4 4 4 4 4 4 4 4 4 4 5 5 4 5 5 5 5 6 6 6 6 7 7
11 8 8 8 5 5 5 4 2 2 3 2 1 1 1 2 2 2 2 2 2 2 3 4 3 4 6 5 5 7 6 3 5 9 6 2 3 3 5 6 5 4 4 4 5 7 7 7 7 8 8 8 8 7 7 7 7 7 7 7 6 6 6 6 6 5 5 5 4 4 5 5 5 5 5 5 5 5 6 6 6 7 7 7 7
12 9 9 8 6 5 6 5 2 2 3 2 1 1 0 0 1 1 1 2 3 2 3 3 4 6 6 6 5 7 6 3 4 5 3 2 1 1 3 4 4 4 3 2 3 4 6 7 7 7 7 7 8 7 7 7 7 7 7 7 7 7 8 8 8 7 7 6 6 6 6 6 6 6 6 7 7 6 7 7 7 7 7 8 8
12 11 9 8 7 5 5 4 4 3 2 2 2 3 2 1 1 1 1 2 4 3 4 5 6 7 5 4 4 5 5 7 7 4 2 3 3 2 2 3 3 3 2 3 3 2 3 6 6 6 5 6 6 6 6 7 7 6 7 7 8 8 8 8 8 9 8 8 8 8 7 8 7 8 8 8 8 8 8 8 8 8 9 9 9
12 12 10 8 7 6 5 5 6 5 3 4 4 4 3 2 2 2 1 3 5 4 2 3 5 5 4 3 4 3 3 5 3 2 4 4 4 5 4 3 3 3 3 3 2 2 2 3 4 4 4 5 5 4 5 6 6 7 7 8 8 9 9 9 9 9 9 9 9 9 9 9 9 9 9 9 10 10 10 9 9 9 9 10 10
13 12 11 9 8 7 7 6 6 4 3 4 5 5 4 3 2 0 1 2 4 4 3 3 3 3 2 3 7 6 2 1 4 2 5 5 5 6 5 4 5 5 3 2 3 3 2 1 3 3 3 3 3 3 3 4 6 7 8 8 8 9 9 9 9 9 10 10 10 10 10 10 10 10 10 10 10 10 10 11 10 11 11 11 12
13 13 11 10 9 8 8 7 4 3 4 5 5 5 4 3 3 1 0 0 3 5 5 4 2 4 5 3 8 9 5 1 2 1 6 5 4 6 7 8 7 7 5 1 3 3 2 2 3 3 2 2 2 3 3 3 4 5 6 7 8 8 8 8 9 9 10 10 11 11 11 11 11 10 10 10 11 11 11 11 12 12 12 12 12
13 13 12 11 11 9 8 6 4 4 5 4 5 5 4 4 4 3 1 1 3 5 5 2 3 6 7 3 7 10 5 4 3 4 7 6 5 6 6 7 6 6 4 1 2 2 3 4 3 3 2 1 2 2 2 2 2 2 3 4 6 6 7 7 7 8 9 10 10 10 11 11 11 11 10 10 11 11 11 11 11 11 11 11 11
13 13 12 11 11 10 8 7 6 7 5 4 5 6 4 3 3 3 2 1 3 5 4 3 1 5 8 3 6 9 1 3 6 4 5 6 7 7 5 6 7 7 5 2 3 4 3 4 3 3 3 2 1 1 1 1 2 1 1 2 3 4 5 5 6 6 7 7 7 7 8 8 8 8 8 7 8 8 8 8 8 8 8 9 9
13 12 12 12 11 11 10 9 8 7 6 5 6 6 5 4 3 3 3 3 3 3 2 4 5 5 7 5 6 8 2 2 6 5 4 5 7 6 4 6 4 2 2 4 7 6 3 3 3 3 3 3 2 1 1 1 2 2 1 1 1 2 2 3 4 5 5 5 5 5 5 5 4 4 4 4 4 4 5 5 5 6 6 7 7
14 13 13 12 12 12 12 10 8 7 8 7 6 5 5 5 4 3 3 3 3 4 4 4 4 2 6 8 7 7 5 4 5 5 5 5 6 5 6 7 3 5 4 5 7 5 4 2 3 4 3 3 2 1 3 2 1 1 1 1 1 1 2 3 3 3 3 3 3 3 2 2 2 2 2 2 3 3 3 4 4 5 5 5 6
14 14 13 13 12 12 12 11 9 8 8 8 6 5 5 5 5 6 5 4 3 4 5 5 5 3 6 7 7 7 6 6 7 7 6 6 6 7 7 7 5 3 4 7 4 3 4 2 4 4 2 2 3 3 2 1 1 0 1 1 1 2 2 3 3 3 3 3 3 2 2 2 2 2 2 2 3 3 3 3 4 4 4 5 6
15 14 14 14 13 12 12 11 10 8 7 7 5 5 6 5 6 8 6 6 5 3 4 6 6 7 7 5 6 6 5 8 11 8 7 6 5 7 6 6 8 6 8 8 3 2 2 1 3 5 3 1 1 2 2 2 2 1 1 1 1 1 2 2 3 3 3 3 3 2 2 2 2 2 2 2 2 2 3 3 4 4 5 5 6
16 15 15 15 14 13 12 12 11 9 6 6 5 6 7 6 7 8 7 8 7 5 3 4 6 9 10 6 6 4 4 10 11 9 9 6 6 7 5 5 7 7 8 6 3 3 1 1 3 5 4 1 1 1 1 3 4 4 4 3 2 1 0 1 1 2 2 2 2 2 2 1 2 2 2 3 3 3 4 4 4 5 6 6 7
16 16 16 16 15 13 12 12 12 9 7 6 6 7 6 7 8 9 8 8 9 9 5 5 5 8 10 7 5 3 5 8 7 8 10 8 8 8 5 6 5 3 5 5 5 4 2 1 1 1 3 3 1 1 1 3 5 5 5 4 4 3 2 1 1 0 0 0 0 0 1 1 2 2 3 3 4 4 5 6 6 7 7 8 9
17 17 17 16 15 14 13 13 12 10 8 6 7 8 8 8 9 10 9 8 9 10 8 6 6 5 10 9 5 5 6 7 5 7 8 7 9 9 6 7 7 4 3 5 9 8 5 3 5 6 3 1 1 2 1 3 4 4 5 4 4 4 3 3 2 2 1 1 1 2 2 2 2 2 3 4 5 6 6 7 8 8 9 9 10
17 18 17 17 16 15 14 14 14 12 10 8 8 9 9 9 9 11 11 9 9 9 9 8 5 4 8 9 8 7 6 7 7 8 9 7 8 9 8 9 9 8 6 6 9 9 8 7 6 5 5 3 2 4 3 2 4 4 3 4 3 3 3 3 3 3 2 2 1 2 2 2 3 3 4 5 6 6 7 7 8 8 9 9 10
18 18 18 17 17 17 16 15 14 13 12 10 9 9 10 10 10 11 11 10 9 8 9 10 8 4 7 8 9 10 7 7 7 7 8 9 8 8 10 11 10 10 10 7 6 6 7 7 5 4 7 6 4 4 5 4 3 4 3 2 2 2 3 3 4 3 2 2 1 2 2 3 4 4 5 6 6 7 7 7 8 9 10 10 11
20 18 18 19 18 18 18 17 15 14 13 11 11 11 11 10 11 12 11 11 10 8 9 9 10 10 8 9 10 12 11 10 10 9 8 8 9 8 8 11 12 12 10 8 8 8 6 6 4 3 8 9 6 4 6 7 5 4 3 2 1 0 1 2 2 2 1 1 1 1 2 2 3 4 5 6 7 7 8 9 10 11 12 13 14
21 20 19 20 19 18 19 19 18 16 14 13 12 13 13 11 11 13 12 12 11 10 9 9 11 15 11 7 9 11 11 9 10 11 9 8 8 8 6 8 11 11 9 8 12 12 8 9 6 6 10 10 8 8 9 10 7 5 4 4 3 2 2 1 1 1 1 1 1 1 1 2 3 5 6 7 7 8 9 10 11 12 14 15 16
25 24 22 21 21 20 19 19 19 18 16 15 13 13 14 13 12 13 13 13 13 12 11 9 11 16 14 8 8 9 9 7 7 9 10 10 11 10 6 6 9 9 8 8 9 8 9 12 12 10 11 9 8 10 12 13 12 7 5 6 6 5 4 4 4 3 3 3 3 2 2 2 3 5 6 7 8 9 10 12 13 14 16 17 18
28 26 24 22 22 21 20 19 20 19 18 16 14 14 15 15 14 14 14 14 14 13 12 11 11 14 16 14 10 8 8 9 9 9 9 10 12 11 8 7 8 9 9 8 7 9 9 9 12 12 11 10 10 13 14 16 14 9 8 9 9 8 7 7 7 6 5 5 5 4 3 3 3 5 6 8 9 10 12 13 14 16 17 18 19
28 28 25 23 23 22 21 20 20 20 20 18 16 15 16 16 16 16 15 15 15 15 14 13 13 13 15 18 15 11 9 10 11 10 10 9 10 9 10 10 9 8 9 8 8 12 12 9 11 12 11 12 13 15 17 17 13 10 11 13 11 11 10 10 10 9 8 7 7 7 6 5 5 7 9 10 10 11 12 14 16 17 18 20 20
27 27 27 25 23 23 22 20 20 20 20 19 18 17 17 17 17 18 17 16 16 16 16 15 14 14 14 17 19 16 12 12 13 11 11 10 8 7 11 13 10 8 9 9 9 10 9 9 11 10 11 14 13 14 16 16 14 12 13 13 13 13 11 11 12 12 11 10 9 9 8 8 8 10 11 12 12 12 13 15 17 18 20 21 21
26 25 26 26 25 24 24 22 21 20 20 20 19 19 19 18 18 19 19 19 18 18 17 16 16 16 15 16 18 19 15 14 15 13 12 12 11 10 12 14 13 12 10 10 10 9 6 7 11 14 15 16 14 12 12 13 13 13 12 13 14 14 12 11 12 13 13 12 11 11 10 10 11 12 12 13 13 14 15 17 18 19 20 20 21
28 25 24 25 26 26 27 26 24 22 21 20 20 20 21 21 20 20 20 21 21 19 18 17 17 17 17 17 17 19 20 17 18 17 15 15 16 16 15 15 15 16 14 12 10 10 9 8 10 14 15 14 13 11 10 11 11 12 13 13 13 13 12 10 12 13 13 13 12 12 12 11 12 12 13 14 14 15 17 18 20 20 19 19 19
30 28 26 25 25 27 28 28 26 24 23 22 21 21 22 22 22 22 21 22 23 22 20 19 19 19 19 20 18 18 21 20 19 19 18 18 19 20 19 17 16 17 17 15 12 10 11 10 8 10 11 10 10 10 10 12 11 11 13 14 13 14 13 11 11 12 12 12 12 12 12 11 12 12 13 14 16 17 18 20 20 20 19 19 18
31 30 29 27 26 27 28 28 28 27 25 24 23 23 23 23 23 23 23 24 25 25 24 22 21 21 21 22 21 19 20 22 20 20 20 20 20 20 20 19 18 17 18 18 16 12 11 11 8 9 10 10 10 10 11 12 13 11 13 14 15 15 14 12 12 12 12 12 12 12 12 12 12 13 14 15 17 18 19 20 20 19 19 19 19
33 32 31 31 29 28 28 28 28 28 27 26 26 26 26 25 24 24 25 25 25 26 26 24 23 23 22 23 24 22 21 21 21 21 21 22 22 20 19 19 19 18 18 19 19 16 12 12 12 9 9 12 13 12 11 13 15 13 12 14 16 16 14 12 12 12 12 12 13 12 12 12 13 14 15 16 18 19 20 19 18 18 18 19 20
35 34 33 32 32 31 29 29 29 28 28 27 27 28 28 28 26 26 26 27 27 27 28 27 26 25 25 25 25 25 24 23 22 22 21 22 23 21 20 20 19 19 19 18 19 18 15 14 15 14 10 11 13 14 13 15 16 15 12 13 16 16 14 13 13 12 11 11 11 12 12 13 14 15 15 17 18 19 18 17 17 18 19 20 20
36 35 34 33 33 33 32 31 30 30 29 29 29 29 30 29 28 27 28 29 29 28 29 30 29 28 27 27 27 26 26 27 25 24 22 22 23 23 21 20 20 20 19 19 19 19 18 16 16 16 14 13 15 16 15 15 15 16 15 13 14 16 14 13 13 13 13 12 12 13 14 14 14 15 16 17 17 17 16 16 18 20 20 20 20
36 36 35 34 33 34 34 33 33 32 31 31 31 31 32 32 30 29 29 29 31 31 30 31 31 30 30 30 30 29 28 29 29 27 26 24 24 24 23 22 21 21 20 20 19 19 19 17 16 16 16 17 18 17 16 16 15 16 17 16 15 15 15 15 14 14 14 14 14 14 14 14 14 14 15 16 16 16 17 18 19 19 18 18 18
38 36 36 36 35 35 35 35 35 34 33 33 33 33 33 33 33 31 30 30 31 32 33 32 32 32 32 32 32 31 30 31 31 30 29 27 26 26 25 24 24 23 22 22 21 20 20 19 18 17 17 18 18 16 16 17 15 15 18 19 17 16 16 16 16 15 14 15 15 14 14 14 14 14 15 16 16 17 18 18 18 17 16 16 15
39 37 37 37 37 37 36 36 36 36 35 35 35 35 35 35 34 33 32 31 32 33 34 34 33 33 34 34 33 33 33 33 32 31 31 30 29 28 28 27 26 25 25 24 24 23 22 21 20 19 18 18 18 18 19 19 16 16 18 20 20 18 17 18 17 15 15 17 17 16 15 14 13 14 15 17 18 19 19 19 17 15 15 14 13
39 38 39 38 38 38 38 38 37 37 37 37 37 37 37 36 36 36 35 34 33 34 35 35 35 35 35 35 35 35 35 34 34 33 32 32 31 31 31 30 28 28 27 26 26 26 25 23 23 23 21 20 20 21 21 20 18 17 18 19 19 17 17 18 17 15 15 17 17 16 15 14 13 14 16 17 18 19 19 19 16 13 14 14 13
39 38 39 39 39 39 39 39 39 39 39 39 39 39 39 38 38 37 37 36 36 36 37 37 37 37 37 37 37 37 37 37 36 35 34 34 33 33 33 32 31 30 29 29 28 29 28 25 24 24 23 22 23 23 22 21 21 18 18 19 19 18 17 17 17 16 15 16 17 17 15 12 11 13 15 18 19 19 19 18 14 13 14 15 15
38 37 37 38 38 39 40 40 40 40 41 41 41 41 41 40 40 39 39 38 38 37 38 38 39 39 39 39 40 40 40 39 37 37 37 36 36 35 34 34 34 33 32 31 30 30 30 28 26 25 24 24 24 24 24 24 23 19 16 17 19 19 18 18 19 18 16 15 16 16 15 12 11 13 16 18 19 17 17 15 13 14 15 16 16
39 38 37 36 37 38 39 40 41 42 42 43 43 43 43 42 42 41 41 40 40 40 39 40 40 40 40 41 41 41 42 41 39 38 38 37 38 37 36 35 35 35 35 34 33 32 31 31 29 27 26 26 25 25 25 25 23 20 17 17 18 18 19 21 21 19 16 15 15 16 16 13 13 15 16 17 16 14 14 14 14 15 16 16 18
41 40 38 37 37 37 38 39 41 42 43 43 43 43 43 43 43 43 43 43 42 42 42 42 42 42 42 42 42 42 42 42 41 40 38 38 38 37 37 37 37 37 37 36 35 34 33 32 31 30 29 28 26 26 25 24 23 22 21 19 18 18 19 21 21 19 16 15 15 16 15 14 15 17 17 15 12 10 11 13 14 15 17 18 20
42 42 41 40 39 38 38 38 40 42 43 43 43 43 43 43 42 42 43 44 44 44 44 44 44 44 44 44 43 43 43 43 42 41 40 39 38 38 38 38 38 37 37 37 36 36 35 34 33 32 31 29 27 26 25 24 23 22 21 20 19 20 20 20 20 19 16 15 15 16 15 14 16 17 16 13 9 8 11 14 15 17 18 19 20
44 43 44 43 42 41 41 41 41 42 42 42 42 42 42 42 41 41 42 44 45 46 46 46 45 45 45 45 45 44 43 43 43 42 41 40 39 39 38 39 39 39 38 37 36 35 35 35 35 34 33 30 29 27 25 23 22 22 22 22 21 20 20 19 19 18 17 17 17 16 16 15 15 15 13 10 9 11 14 16 16 18 19 20 20
45 46 45 45 45 44 44 44 44 43 43 42 42 42 41 40 40 40 41 43 45 46 47 47 47 47 47 47 47 46 45 44 44 44 43 42 41 40 40 41 41 41 40 38 37 36 36 35 36 35 33 31 29 27 25 23 24 25 25 24 22 21 20 19 17 17 19 20 18 18 18 16 13 13 12 10 10 13 15 16 16 17 19 19 17
46 47 47 47 47 46 46 46 45 45 45 43 43 42 42 40 39 38 39 41 44 46 47 47 47 48 48 48 48 48 46 45 46 46 46 45 43 43 43 44 44 43 43 41 40 39 38 37 37 36 34 32 30 28 26 25 27 27 26 24 22 21 20 19 17 19 21 21 19 19 18 15 13 13 12 10 11 13 15 17 17 18 18 16 14
44 46 47 47 47 47 46 46 46 47 47 45 44 44 43 41 40 39 39 39 42 45 47 48 48 48 48 48 48 48 48 47 47 47 47 46 45 45 45 46 46 46 46 44 42 41 40 39 37 36 35 33 32 30 29 28 28 28 27 25 23 22 22 21 21 22 22 21 19 19 17 15 14 14 13 13 14 15 16 17 16 14 13 13 15
42 44 46 47 47 47 47 47 47 49 48 47 46 46 45 43 42 42 41 41 41 44 47 49 49 49 49 48 48 48 49 49 49 48 48 47 47 47 48 48 48 47 48 46 43 43 42 40 38 37 36 35 34 32 31 30 30 29 28 28 27 26 26 25 24 23 22 21 20 19 17 16 16 15 14 14 15 15 13 11 10 10 12 15 17
41 41 40 41 44 46 47 47 48 49 49 47 47 47 45 45 44 44 43 42 43 45 47 48 50 50 50 50 50 50 50 50 49 49 49 49 49 50 50 50 49 50 49 48 46 45 44 42 40 38 38 38 36 35 32 31 32 31 30 30 28 27 27 27 24 20 18 18 18 17 17 18 17 16 15 15 15 14 10 7 8 12 15 16 15
41 38 36 35 38 41 43 44 45 46 47 46 46 46 46 45 44 44 43 43 45 47 47 48 50 51 51 52 52 53 53 51 49 49 50 50 51 52 52 51 52 53 52 49 47 47 47 46 44 42 42 41 40 38 35 33 32 32 31 29 27 26 27 26 22 16 16 17 17 17 18 18 17 17 18 17 16 14 10 9 12 14 15 14 14
Wind_Direction
223 205 200 189 196 188 151 131 146 167 98 63 75 180 307 358 64 64 67 40 32 37 81 101 100 102 109 110 111 78 98 36 313 261 239 359 13 293 163 165 154 147 161 162 162 160 157 154 149 152 154 159 160 154 149 141 141 145 145 149 151 151 153 150 148 158 157 148 147 140 83 31 33 16 16 28 57 21 342 324 323 328 323 326 332
219 202 194 206 228 219 197 145 136 176 101 86 288 242 340 356 78 58 348 29 43 45 77 97 103 101 89 102 108 112 114 336 266 215 234 5 19 40 138 150 149 133 150 159 166 167 159 158 158 160 161 168 171 168 166 158 154 156 152 156 165 169 174 173 168 176 176 180 231 257 271 283 291 299 325 331 332 326 319 314 318 327 323 325 328
226 200 181 218 213 182 224 134 108 219 126 110 248 33 353 345 32 228 351 46 42 34 61 92 103 101 93 98 89 97 114 93 185 183 357 11 22 62 124 131 137 126 146 159 166 174 169 167 167 169 170 174 176 177 181 175 173 179 172 168 174 180 187 191 188 196 205 215 235 251 266 272 274 274 284 300 306 308 312 311 308 311 310 312 317
217 203 180 219 213 177 230 153 130 217 199 233 226 48 332 0 19 348 63 74 44 19 54 82 96 119 103 88 74 94 85 88 149 157 11 23 53 114 131 125 136 134 153 169 170 173 177 177 174 174 176 179 181 182 189 189 188 192 194 194 193 195 204 208 208 218 221 225 235 246 261 265 264 267 276 289 294 295 296 297 298 299 300 302 306
205 198 198 217 223 207 235 231 201 222 247 282 256 113 288 4 17 22 57 83 55 36 73 85 94 118 104 98 129 113 90 95 131 88 33 28 67 116 133 130 134 128 142 166 174 175 179 184 181 180 181 182 185 189 194 197 197 199 203 207 207 208 215 217 218 226 232 235 237 238 248 256 261 266 271 275 280 284 285 285 286 289 292 297 300
214 207 207 212 217 209 218 223 219 241 235 241 244 197 88 11 348 19 43 70 69 61 94 115 125 117 108 117 135 107 93 160 131 95 89 41 32 92 126 139 134 119 121 141 164 179 186 189 188 186 186 186 187 193 198 200 203 207 211 214 217 219 223 226 228 232 236 238 237 237 240 245 254 261 267 270 269 273 276 276 278 282 286 290 293
218 213 211 214 213 205 212 214 205 221 225 222 200 216 150 21 316 0 328 70 82 59 46 64 102 122 124 115 107 78 78 147 129 101 126 120 38 56 110 138 135 121 121 116 132 166 190 198 198 193 192 193 194 198 204 208 211 216 222 224 224 225 229 231 235 238 238 240 243 247 249 248 251 257 263 267 270 270 271 274 277 282 284 286 288
216 214 213 216 212 210 224 222 212 208 227 252 213 212 224 223 278 316 280 92 80 67 43 39 71 100 105 98 97 70 90 129 118 89 77 106 134 146 118 127 131 127 130 134 120 122 175 198 205 202 201 202 206 212 216 217 220 225 231 235 234 231 233 236 239 242 243 246 248 252 257 258 259 262 264 265 269 270 269 274 277 279 281 284 288
217 216 215 217 211 215 229 225 225 226 226 231 212 202 221 248 269 287 26 92 89 79 60 44 62 78 66 90 122 87 98 131 114 56 68 82 117 133 140 135 126 124 111 114 112 95 129 188 195 193 202 205 212 226 237 237 232 232 235 238 240 238 237 237 241 244 246 248 250 253 256 259 262 265 269 270 271 272 274 277 279 281 285 289 291
217 219 217 217 215 213 220 225 227 224 221 225 206 190 205 238 256 272 44 102 117 114 101 83 75 73 58 145 142 112 90 236 306 347 86 77 83 103 113 109 98 98 105 119 97 86 96 156 177 164 170 189 204 226 242 248 243 239 237 236 239 243 243 241 242 243 245 248 251 254 256 258 261 265 271 275 276 278 281 284 286 289 292 294 295
216 221 217 216 220 217 218 225 221 212 229 232 215 202 201 214 244 246 168 72 117 112 93 93 127 132 110 133 145 118 86 139 289 59 112 95 73 72 67 70 56 44 47 87 96 74 80 115 145 143 144 184 207 231 246 252 254 245 236 233 233 238 240 240 244 246 247 251 254 257 259 261 263 266 272 276 279 281 283 286 288 290 291 292 292
216 221 219 216 221 226 227 228 226 228 237 230 222 223 214 209 237 241 184 66 110 107 94 137 217 160 126 101 157 142 96 109 102 73 112 117 115 108 83 81 82 75 62 31 139 114 96 100 107 114 114 172 200 207 228 231 233 233 229 230 230 231 232 235 243 250 252 254 257 261 262 264 267 269 271 274 278 280 282 285 288 290 290 291 293
215 220 221 216 220 230 234 231 231 234 234 226 226 224 222 225 221 213 201 112 101 93 101 126 69 128 135 99 139 147 117 95 107 99 119 126 130 125 128 152 151 150 176 207 118 101 97 103 109 117 112 113 131 129 180 185 166 164 201 224 229 232 234 236 240 247 253 254 257 260 261 264 268 270 272 274 278 278 281 285 290 293 293 293 295
218 220 222 219 219 224 225 224 228 230 228 226 229 224 226 233 212 200 198 158 122 121 157 125 80 97 128 122 126 138 180 88 107 134 151 139 135 121 130 161 152 116 152 122 93 90 102 124 147 155 130 128 133 77 95 149 131 108 150 193 211 221 233 242 244 244 247 250 253 257 259 260 262 270 276 277 279 278 278 282 284 287 287 288 292
222 222 222 220 219 222 222 225 229 228 230 233 234 227 223 225 218 221 205 169 138 165 195 139 118 155 146 146 154 147 154 148 133 151 161 148 142 136 133 139 117 26 48 111 117 142 171 150 135 151 153 145 152 127 116 132 134 105 150 212 208 212 232 236 241 246 243 245 246 248 256 265 268 268 265 266 265 261 261 267 272 277 283 286 292
222 224 224 221 221 225 227 231 234 233 232 233 237 235 231 222 215 222 203 178 171 157 162 144 136 185 177 167 174 163 155 153 151 155 162 160 154 163 160 151 146 72 97 142 149 170 175 139 110 117 139 144 141 161 154 121 118 156 221 243 233 225 241 237 238 243 245 247 243 245 256 268 268 251 245 249 256 263 266 276 286 292 300 302 305
222 225 226 224 224 225 226 232 237 242 238 237 243 240 235 217 209 221 192 165 189 178 157 167 172 180 185 181 166 169 173 155 154 159 168 171 172 179 176 166 175 169 163 173 178 130 125 125 121 102 91 70 100 152 149 118 122 102 127 200 223 229 241 247 248 243 241 248 247 257 264 261 265 268 283 297 301 311 317 318 323 325 327 329 330
226 228 229 226 226 225 223 229 235 241 243 244 239 230 230 214 208 219 194 169 180 183 176 195 201 196 193 178 139 123 140 154 160 164 167 170 179 193 189 179 201 200 186 193 198 177 151 73 125 109 121 195 333 44 107 108 117 103 89 87 90 98 132 236 245 242 237 243 244 253 262 276 312 341 354 355 359 357 355 354 352 351 350 350 348
226 230 231 227 227 227 225 227 231 237 239 240 230 222 225 216 215 217 204 191 182 177 193 232 240 211 192 173 141 129 141 160 179 170 170 180 181 196 199 183 216 233 185 178 181 211 268 92 150 226 188 205 259 229 153 107 109 106 101 91 90 94 86 87 74 350 293 272 319 0 18 32 29 28 25 17 11 3 359 357 355 354 352 350 348
225 229 230 228 225 224 225 227 229 233 231 232 230 227 225 219 220 216 209 204 189 179 184 225 273 238 194 180 169 202 174 163 189 173 176 196 188 195 198 191 213 229 204 186 192 220 262 276 283 283 253 233 226 225 215 144 135 124 118 111 99 91 80 69 56 40 45 49 64 72 66 56 52 33 14 5 359 355 354 353 351 350 347 345 343
227 228 228 228 224 221 223 224 229 233 231 228 229 229 228 224 221 219 217 209 199 194 182 198 247 265 217 194 174 210 203 170 186 179 179 201 199 200 204 200 204 209 213 207 209 235 269 283 283 268 266 294 251 238 259 202 167 160 142 126 112 95 85 71 58 55 51 59 63 53 45 30 16 9 5 2 1 359 357 354 349 345 341 338 337
233 228 228 228 224 221 222 223 226 231 232 231 229 227 228 225 223 224 223 215 211 208 195 197 205 221 249 229 191 199 198 185 202 193 188 205 203 200 206 203 199 209 211 199 209 239 268 278 268 230 251 281 279 236 243 257 224 195 181 140 122 95 90 83 73 66 52 51 45 21 15 12 8 6 6 4 2 358 353 348 344 340 338 336 335
237 230 224 227 227 223 224 225 225 227 229 231 229 225 226 228 226 226 225 220 218 213 214 217 199 191 229 250 221 203 191 192 202 199 205 212 208 206 210 207 203 209 207 193 209 217 236 267 267 222 244 271 291 251 243 263 252 221 213 188 202 249 67 81 79 70 54 38 26 20 10 6 8 7 5 2 357 353 349 345 343 340 338 335 333
232 232 222 222 227 225 224 225 225 226 225 227 227 223 225 229 227 228 228 224 221 217 225 234 208 195 205 242 238 208 195 199 194 200 213 206 208 222 220 208 201 203 208 208 217 218 227 248 247 235 239 258 284 272 267 272 264 257 249 235 238 246 273 297 347 356 328 331 326 344 0 5 15 11 9 4 357 352 348 343 340 336 333 330 327
220 230 227 222 224 227 225 224 226 227 224 225 226 221 222 225 226 229 229 226 225 221 224 236 222 203 195 213 237 209 202 220 201 202 220 213 211 217 216 212 202 209 227 224 222 223 229 241 247 251 241 242 264 264 268 272 271 273 259 248 251 242 252 268 267 279 284 290 296 299 328 357 13 12 8 -0 353 348 343 338 334 329 326 323 320
218 226 230 225 224 230 230 226 228 231 229 226 224 222 223 223 226 230 230 227 227 225 221 225 230 217 198 196 212 212 210 226 216 204 221 236 229 212 200 212 218 226 227 214 217 223 223 231 242 253 249 237 244 250 260 269 269 272 277 275 265 248 249 259 261 265 267 272 280 283 299 324 342 345 342 339 337 336 334 332 328 323 319 316 314
225 226 229 229 228 233 236 231 229 231 233 232 226 225 228 225 224 229 231 229 226 227 225 219 225 234 217 197 194 204 214 221 224 216 215 236 249 223 201 209 224 224 209 207 226 225 221 229 237 248 252 246 249 249 254 264 261 250 261 272 272 264 259 260 263 264 263 266 269 273 282 291 305 314 315 318 320 323 325 324 322 318 313 311 308
230 229 228 230 232 234 238 237 232 230 232 235 231 228 230 227 224 226 228 229 228 228 229 224 221 232 232 208 192 193 207 218 227 228 215 218 242 238 216 219 226 210 205 229 250 233 222 231 237 239 245 251 259 256 254 260 259 247 248 257 263 264 264 264 269 267 264 264 265 268 274 277 286 295 300 305 307 311 315 317 316 313 310 308 306
226 230 229 228 227 229 236 240 238 234 230 234 234 231 231 229 226 228 226 227 231 232 231 229 223 224 231 225 202 189 193 209 217 223 222 216 217 220 222 229 227 209 210 233 243 239 235 237 237 237 244 252 257 260 260 257 254 251 250 251 254 258 261 263 266 265 262 263 264 268 272 273 278 286 293 298 300 304 308 309 309 308 307 306 305
221 224 229 228 225 224 229 236 240 240 235 234 235 233 233 232 229 231 230 227 231 233 232 230 227 222 225 231 219 196 191 203 211 212 221 225 219 216 221 228 225 215 214 225 235 241 239 238 249 251 251 255 255 258 265 260 250 245 247 250 251 257 263 260 258 260 261 262 263 267 269 270 275 281 287 291 294 298 302 305 306 306 306 306 305
223 221 224 229 228 223 224 230 235 238 238 237 236 234 234 233 230 231 232 229 230 233 233 231 230 226 222 227 229 212 200 207 214 210 213 227 228 225 225 226 225 221 217 219 230 237 228 224 248 261 250 249 263 266 261 263 260 243 242 250 250 254 263 262 257 257 258 259 260 262 264 267 273 278 283 288 292 296 301 304 306 306 307 306 304
228 225 223 224 228 226 224 227 229 233 238 238 237 237 236 234 231 231 232 230 229 232 233 233 233 232 227 227 232 228 216 214 220 218 214 223 232 232 231 228 226 225 219 218 223 227 229 224 230 260 267 265 273 271 258 261 266 254 246 251 252 257 262 259 255 257 261 261 258 258 260 266 273 278 283 288 292 297 301 303 304 304 304 303 302
230 230 227 224 225 227 227 227 228 232 237 238 238 238 238 237 235 233 233 232 230 230 232 233 234 235 233 230 230 233 232 226 225 226 220 222 231 235 234 231 229 228 223 221 223 222 226 223 210 222 265 272 266 261 253 254 261 262 253 248 253 261 263 259 257 259 261 260 258 257 260 267 274 277 283 289 293 297 299 300 300 300 300 299 298
230 231 232 228 225 226 228 229 230 232 236 238 238 237 237 238 236 234 233 232 232 230 230 231 233 236 236 235 233 231 234 236 233 233 230 227 232 237 236 232 232 234 232 228 228 224 223 224 217 212 228 254 254 249 249 251 256 263 260 249 252 260 263 259 260 263 263 257 253 255 262 268 273 276 281 287 293 296 297 297 298 297 297 297 295
230 231 234 233 229 228 229 231 232 234 235 236 236 235 237 238 238 237 235 233 232 231 231 231 232 236 236 237 237 232 231 235 236 237 238 233 233 239 240 236 234 235 237 235 233 229 225 226 229 225 219 228 242 246 249 253 253 256 261 259 256 258 259 255 257 262 264 262 259 262 267 269 270 274 280 289 296 300 301 301 301 299 298 296 294
229 232 233 233 233 232 232 232 233 235 235 235 234 233 235 238 240 240 239 236 234 233 234 234 232 234 237 238 240 236 232 235 237 237 238 237 235 238 240 240 237 234 236 238 238 235 229 225 230 234 228 228 238 246 251 255 252 247 254 264 264 260 258 258 258 258 260 265 267 268 271 274 275 276 282 294 302 304 305 305 303 301 299 296 296
229 232 233 233 234 235 235 234 235 236 236 234 234 232 233 236 239 241 240 239 238 236 237 238 236 235 237 239 241 239 236 236 239 239 239 238 236 236 238 239 238 236 234 235 239 238 233 226 225 232 234 233 238 245 246 251 253 244 244 255 262 261 259 260 259 256 258 265 267 270 275 278 278 281 288 299 305 305 305 306 306 305 302 301 305
229 229 232 234 234 236 238 238 237 237 237 235 236 235 233 233 236 240 241 240 240 239 238 240 240 238 238 240 241 241 239 238 241 243 242 240 237 236 238 238 237 236 233 231 234 238 237 232 226 227 231 231 232 239 243 246 251 247 242 247 255 258 256 257 257 250 250 259 265 267 271 276 278 284 293 301 304 305 305 305 308 307 304 307 314
231 229 230 234 236 237 240 242 241 240 239 238 237 237 235 234 235 238 240 241 240 240 240 240 240 239 239 240 241 242 242 241 242 244 245 244 241 238 239 239 237 236 234 231 230 233 237 235 228 227 229 227 226 233 243 248 251 250 245 246 251 254 251 254 258 250 245 255 263 263 266 275 280 285 294 299 302 303 300 302 307 304 300 308 316
232 230 229 232 236 237 239 241 243 242 240 239 237 236 236 235 235 236 239 241 239 239 240 240 239 238 238 239 240 243 246 246 245 245 247 247 245 241 239 238 236 236 236 233 229 229 234 234 231 228 228 227 229 232 238 241 244 248 248 246 249 254 256 260 263 259 251 255 263 264 266 271 274 277 285 292 296 295 293 297 301 295 294 305 312
231 231 228 229 233 236 237 239 241 241 239 240 239 238 238 236 235 234 236 239 239 238 238 239 237 237 237 238 239 241 246 249 250 248 248 248 248 246 243 239 237 235 235 234 231 228 230 231 231 230 227 226 230 233 235 237 243 253 256 248 247 252 254 257 261 262 258 258 260 257 252 252 256 264 274 284 290 289 288 291 290 286 293 302 307
229 231 228 226 229 234 236 237 238 239 238 239 241 241 241 240 239 236 234 236 237 237 237 237 237 236 236 237 238 241 245 249 251 250 248 247 247 248 249 246 243 239 236 234 232 230 229 230 230 230 228 228 231 235 238 240 245 251 249 244 246 247 246 247 253 257 256 256 254 248 245 251 264 274 281 287 289 284 278 279 281 286 294 299 302
226 230 229 226 227 230 233 236 238 240 241 241 243 245 245 244 243 239 237 236 236 236 236 237 236 236 236 237 237 239 243 246 248 248 247 246 246 247 249 249 249 246 242 238 235 232 231 231 231 229 230 232 233 236 239 241 241 243 243 242 242 241 242 243 247 252 252 250 251 252 253 263 278 287 292 293 294 288 275 274 281 287 291 295 299
223 226 229 229 228 227 230 235 239 241 245 247 248 248 248 247 245 243 240 237 235 235 236 236 237 236 236 237 237 237 239 243 245 245 245 246 247 247 248 249 249 249 247 245 242 239 236 235 233 231 232 234 234 235 237 237 237 239 240 240 237 237 241 241 242 248 250 250 254 257 259 269 282 290 296 300 304 296 277 274 280 283 287 294 301
223 224 227 229 230 229 229 233 237 240 244 248 250 251 250 249 247 244 242 239 237 237 237 236 237 237 237 237 237 237 238 240 242 242 243 244 246 247 247 248 248 248 247 245 244 244 243 241 237 235 235 235 235 236 237 233 231 233 236 237 237 238 239 239 241 245 248 250 252 255 262 273 281 286 292 291 280 273 270 273 277 281 289 298 302
223 224 227 229 231 232 232 233 236 239 241 244 248 250 250 249 247 245 243 242 240 240 239 238 238 238 238 237 237 238 238 238 240 241 241 242 242 243 244 244 245 246 245 243 242 241 240 240 239 239 238 237 237 238 237 229 225 228 234 237 238 239 239 241 244 244 247 251 250 254 266 275 276 279 283 273 262 265 268 271 275 281 290 295 298
224 225 227 228 230 232 233 232 234 237 240 242 245 248 249 248 247 246 244 242 241 241 240 240 240 240 240 239 239 239 238 237 240 241 241 240 240 240 241 242 244 244 244 243 242 241 238 237 238 239 239 238 237 234 231 228 225 229 236 240 241 240 239 240 241 241 246 251 252 256 266 270 271 275 271 258 254 256 261 268 272 279 286 291 298
225 226 227 228 230 232 232 232 233 237 239 241 243 246 248 247 246 245 244 242 240 240 240 240 240 241 241 240 240 240 239 238 240 241 241 240 240 239 239 240 242 242 242 244 245 244 241 239 239 239 238 237 235 231 229 229 230 231 232 233 233 231 229 229 232 237 245 253 257 259 262 262 266 267 257 253 261 261 261 267 273 280 286 289 294
225 227 228 230 231 233 234 234 235 238 239 239 242 244 246 246 244 244 244 243 242 241 241 240 240 241 242 241 240 241 240 239 240 241 241 240 239 240 239 239 239 238 239 242 243 244 242 241 241 239 237 235 233 232 232 232 234 234 231 228 227 227 228 228 231 238 245 251 254 255 257 261 265 262 255 262 275 276 273 275 281 284 279 278 287
226 228 230 231 232 234 235 236 238 240 240 240 242 243 244 244 244 243 243 244 245 245 243 240 239 240 242 243 243 242 242 241 240 240 241 239 239 239 239 237 235 236 237 237 238 240 239 237 238 238 237 235 233 233 235 235 235 236 236 234 233 231 229 229 233 237 239 243 245 243 245 254 258 255 257 269 280 283 282 272 265 267 269 277 287
230 229 229 231 233 233 235 237 239 242 244 244 244 245 245 243 242 243 243 243 245 246 244 241 240 240 241 243 244 245 245 243 241 241 241 240 239 239 238 235 233 236 239 236 236 240 238 233 233 234 235 235 233 233 235 235 234 236 239 239 237 231 228 230 230 223 216 223 234 235 238 247 252 252 259 270 278 283 278 261 260 268 274 278 279
Height
1580 1581 1582 1582 1583 1583 1584 1585 1585 1586 1587 1587 1586 1585 1586 1587 1587 1587 1587 1588 1588 1588 1588 1589 1589 1589 1590 1589 1589 1590 1591 1590 1587 1588 1589 1589 1590 1590 1591 1591 1592 1592 1593 1594 1594 1595 1595 1596 1597 1597 1598 1598 1598 1599 1599 1600 1600 1601 1602 1602 1603 1603 1604 1604 1604 1605 1605 1605 1605 1605 1606 1606 1606 1606 1606 1606 1607 1607 1608 1608 1608 1609 1609 1609 1609
1580 1581 1582 1582 1583 1583 1584 1585 1585 1586 1587 1587 1586 1585 1586 1587 1586 1586 1588 1588 1588 1588 1588 1588 1589 1589 1589 1588 1588 1590 1591 1590 1587 1587 1588 1589 1590 1590 1591 1591 1592 1593 1593 1594 1594 1595 1595 1596 1597 1597 1598 1598 1598 1599 1599 1600 1600 1601 1601 1602 1602 1603 1603 1604 1604 1604 1605 1605 1605 1605 1605 1606 1606 1606 1606 1606 1606 1607 1607 1607 1608 1608 1608 1609 1609
1580 1581 1582 1582 1583 1583 1584 1585 1585 1586 1587 1587 1587 1587 1587 1587 1587 1588 1588 1588 1588 1588 1588 1588 1589 1589 1589 1588 1588 1589 1591 1590 1588 1587 1588 1589 1589 1590 1591 1591 1592 1592 1593 1594 1594 1594 1595 1596 1596 1597 1597 1598 1598 1599 1599 1600 1600 1601 1601 1602 1602 1602 1603 1603 1603 1604 1604 1604 1605 1605 1605 1605 1606 1606 1606 1606 1606 1606 1606 1607 1607 1607 1607 1608 1608
1580 1580 1581 1582 1582 1583 1584 1585 1585 1586 1587 1587 1587 1588 1588 1588 1588 1588 1588 1588 1588 1588 1588 1588 1589 1589 1589 1589 1589 1589 1590 1591 1589 1587 1588 1588 1589 1590 1591 1591 1592 1592 1593 1593 1593 1594 1595 1595 1596 1597 1597 1598 1598 1599 1599 1600 1600 1600 1601 1601 1602 1602 1602 1602 1603 1603 1603 1604 1604 1604 1605 1605 1605 1605 1606 1606 1606 1606 1606 1606 1606 1606 1606 1606 1607
1580 1580 1581 1582 1582 1583 1584 1585 1586 1586 1587 1587 1588 1588 1588 1588 1588 1588 1588 1588 1588 1588 1588 1588 1589 1589 1589 1589 1590 1589 1590 1592 1590 1587 1587 1588 1589 1590 1591 1591 1592 1592 1592 1593 1593 1594 1594 1595 1595 1596 1597 1597 1598 1598 1599 1599 1600 1600 1600 1601 1601 1601 1602 1602 1602 1602 1603 1603 1603 1604 1604 1604 1605 1605 1605 1605 1605 1605 1605 1605 1605 1605 1605 1605 1606
1580 1581 1582 1582 1583 1584 1584 1585 1586 1586 1586 1587 1587 1588 1588 1588 1588 1588 1588 1588 1588 1588 1588 1588 1588 1588 1589 1589 1589 1589 1590 1591 1591 1589 1588 1588 1589 1590 1591 1591 1591 1592 1592 1593 1593 1593 1594 1594 1595 1596 1596 1597 1597 1598 1599 1599 1599 1600 1600 1600 1601 1601 1601 1602 1602 1602 1602 1602 1603 1603 1603 1604 1604 1604 1604 1604 1604 1604 1604 1604 1604 1604 1604 1604 1604
1580 1581 1581 1582 1583 1584 1584 1585 1585 1586 1586 1587 1587 1587 1588 1588 1588 1588 1588 1588 1588 1588 1588 1587 1587 1588 1588 1589 1589 1590 1590 1591 1590 1589 1589 1589 1589 1590 1591 1591 1592 1592 1592 1593 1593 1593 1594 1594 1594 1595 1596 1596 1597 1597 1598 1598 1599 1599 1600 1600 1600 1600 1601 1601 1601 1601 1602 1602 1602 1602 1603 1603 1603 1603 1603 1603 1603 1603 1603 1603 1603 1604 1604 1604 1604
1579 1580 1581 1581 1582 1583 1584 1584 1585 1586 1586 1587 1587 1587 1588 1588 1588 1588 1588 1588 1588 1588 1588 1587 1587 1587 1588 1589 1589 1590 1590 1590 1590 1589 1590 1590 1590 1591 1591 1591 1592 1592 1592 1592 1593 1593 1593 1594 1594 1595 1595 1596 1596 1597 1597 1598 1598 1599 1599 1599 1600 1600 1600 1600 1600 1601 1601 1601 1601 1602 1602 1602 1602 1602 1602 1603 1603 1603 1603 1603 1603 1603 1603 1603 1603
1578 1579 1580 1581 1582 1583 1583 1584 1585 1585 1585 1587 1587 1587 1587 1587 1588 1588 1588 1588 1588 1588 1588 1588 1588 1587 1588 1588 1589 1590 1589 1589 1589 1590 1590 1590 1591 1591 1592 1592 1592 1592 1592 1592 1593 1593 1593 1593 1594 1595 1595 1596 1596 1596 1597 1597 1597 1598 1598 1598 1599 1599 1599 1599 1600 1600 1600 1600 1601 1601 1601 1601 1601 1601 1601 1602 1602 1602 1602 1602 1602 1602 1602 1602 1602
1577 1578 1579 1580 1581 1582 1582 1583 1584 1584 1585 1586 1586 1586 1587 1587 1588 1588 1588 1588 1588 1588 1588 1588 1588 1588 1588 1588 1589 1589 1589 1589 1589 1590 1590 1591 1591 1591 1592 1592 1593 1593 1593 1592 1592 1593 1593 1593 1593 1594 1595 1595 1595 1596 1596 1596 1596 1597 1597 1597 1598 1598 1598 1598 1599 1599 1599 1599 1599 1600 1600 1600 1600 1600 1601 1601 1601 1601 1601 1601 1601 1601 1601 1601 1601
1577 1578 1579 1580 1580 1581 1582 1582 1583 1584 1584 1585 1585 1586 1586 1586 1587 1587 1587 1587 1587 1588 1588 1588 1588 1588 1588 1588 1588 1589 1590 1589 1589 1590 1591 1591 1591 1592 1592 1592 1592 1593 1593 1593 1592 1593 1593 1593 1593 1594 1594 1594 1595 1595 1595 1595 1595 1596 1596 1596 1597 1597 1597 1597 1598 1598 1598 1598 1598 1599 1599 1599 1599 1600 1600 1600 1600 1600 1600 1600 1600 1600 1600 1600 1600
1576 1576 1578 1579 1579 1579 1580 1582 1582 1583 1584 1585 1585 1585 1586 1585 1586 1586 1586 1586 1587 1587 1587 1587 1587 1587 1587 1587 1588 1589 1589 1590 1590 1590 1591 1592 1592 1592 1592 1593 1593 1593 1593 1592 1593 1593 1593 1593 1593 1594 1594 1594 1594 1594 1594 1594 1595 1595 1595 1595 1596 1596 1596 1597 1597 1597 1597 1597 1597 1598 1598 1598 1598 1599 1599 1599 1599 1599 1599 1599 1599 1599 1599 1599 1599
1575 1575 1576 1578 1578 1579 1579 1580 1582 1583 1583 1583 1584 1584 1585 1585 1585 1585 1585 1586 1586 1587 1587 1587 1586 1586 1587 1587 1588 1589 1590 1590 1590 1591 1591 1592 1592 1592 1593 1593 1593 1594 1593 1593 1593 1593 1593 1593 1593 1593 1594 1594 1594 1594 1594 1594 1594 1595 1595 1595 1595 1595 1595 1596 1596 1596 1596 1597 1597 1597 1597 1597 1598 1598 1598 1598 1598 1598 1598 1598 1598 1598 1598 1598 1598
1573 1574 1575 1576 1577 1578 1579 1580 1581 1582 1582 1582 1583 1583 1584 1584 1584 1585 1585 1585 1586 1587 1587 1586 1586 1586 1587 1587 1588 1589 1590 1590 1590 1591 1591 1592 1592 1592 1593 1593 1593 1594 1593 1593 1593 1593 1593 1593 1593 1593 1593 1593 1593 1594 1594 1594 1594 1594 1595 1595 1595 1595 1595 1595 1595 1595 1596 1596 1596 1597 1597 1597 1597 1597 1597 1597 1597 1597 1597 1597 1597 1597 1597 1597 1597
1572 1573 1574 1575 1576 1577 1578 1579 1580 1580 1581 1581 1582 1582 1583 1583 1583 1584 1584 1585 1585 1586 1586 1586 1586 1586 1586 1587 1588 1589 1589 1590 1591 1592 1592 1592 1593 1593 1594 1594 1593 1593 1593 1593 1594 1594 1594 1593 1593 1593 1593 1593 1593 1593 1593 1594 1594 1594 1594 1594 1594 1594 1594 1594 1595 1595 1595 1596 1596 1596 1596 1596 1596 1596 1596 1596 1596 1596 1596 1596 1596 1596 1596 1596 1596
1571 1572 1573 1574 1575 1576 1577 1578 1578 1579 1580 1581 1581 1581 1582 1582 1582 1583 1583 1584 1585 1585 1586 1586 1586 1586 1586 1587 1587 1588 1589 1589 1590 1591 1592 1592 1593 1593 1593 1594 1594 1594 1594 1594 1594 1594 1594 1594 1594 1593 1593 1593 1593 1593 1593 1593 1593 1593 1593 1594 1594 1594 1594 1594 1594 1595 1595 1595 1595 1596 1596 1596 1596 1596 1596 1596 1596 1596 1596 1596 1596 1596 1596 1596 1596
1569 1571 1572 1573 1574 1575 1576 1576 1577 1578 1579 1579 1580 1580 1581 1581 1582 1582 1583 1584 1585 1585 1585 1585 1586 1585 1585 1586 1587 1587 1588 1588 1590 1591 1592 1592 1593 1593 1593 1594 1594 1594 1594 1594 1594 1594 1594 1594 1594 1594 1593 1593 1593 1593 1593 1592 1593 1593 1593 1593 1593 1594 1594 1594 1594 1594 1594 1595 1595 1595 1596 1596 1596 1596 1596 1596 1596 1596 1596 1596 1596 1596 1596 1596 1595
1568 1569 1570 1571 1572 1573 1575 1576 1576 1577 1578 1579 1579 1580 1580 1581 1581 1582 1582 1583 1584 1584 1584 1585 1585 1585 1585 1585 1586 1587 1587 1588 1589 1590 1591 1592 1592 1593 1593 1594 1594 1594 1594 1594 1594 1594 1594 1594 1594 1594 1593 1593 1592 1592 1592 1592 1593 1593 1593 1593 1593 1593 1594 1594 1594 1594 1594 1594 1595 1595 1595 1596 1596 1596 1596 1596 1596 1596 1596 1596 1596 1596 1596 1596 1595
1566 1568 1569 1570 1571 1572 1573 1574 1575 1576 1577 1577 1578 1579 1579 1580 1581 1581 1581 1582 1582 1583 1584 1584 1584 1584 1585 1585 1586 1586 1587 1588 1588 1589 1590 1591 1592 1592 1593 1593 1594 1594 1594 1594 1594 1593 1593 1594 1594 1594 1594 1593 1593 1593 1592 1593 1593 1593 1593 1594 1594 1594 1594 1594 1594 1594 1594 1595 1595 1595 1596 1596 1596 1596 1596 1596 1596 1596 1596 1596 1596 1596 1596 1596 1595
1565 1566 1567 1568 1570 1571 1572 1573 1574 1575 1576 1576 1577 1578 1579 1579 1580 1580 1580 1581 1581 1582 1583 1583 1583 1584 1584 1585 1586 1586 1586 1587 1587 1588 1590 1590 1591 1592 1592 1593 1593 1593 1593 1594 1594 1594 1593 1593 1593 1593 1593 1593 1593 1593 1593 1594 1594 1594 1594 1594 1594 1594 1594 1594 1594 1594 1595 1595 1595 1596 1596 1596 1596 1597 1597 1597 1597 1597 1597 1596 1596 1596 1595 1595 1594
1563 1564 1565 1567 1568 1569 1571 1572 1573 1574 1575 1575 1576 1577 1577 1578 1579 1579 1579 1580 1580 1581 1582 1582 1583 1583 1584 1584 1585 1586 1586 1587 1587 1588 1589 1589 1590 1591 1591 1592 1593 1593 1593 1594 1594 1594 1593 1593 1592 1592 1592 1593 1593 1593 1593 1594 1594 1594 1595 1595 1595 1595 1595 1595 1595 1595 1595 1595 1595 1596 1596 1596 1596 1596 1597 1597 1597 1597 1596 1596 1596 1595 1595 1594 1594
1561 1562 1563 1565 1566 1568 1569 1570 1571 1572 1573 1574 1575 1576 1576 1577 1577 1578 1578 1578 1579 1580 1581 1581 1582 1583 1583 1583 1584 1585 1585 1586 1587 1588 1588 1589 1589 1590 1591 1591 1592 1592 1593 1594 1594 1594 1593 1592 1593 1592 1592 1593 1594 1593 1593 1593 1594 1594 1595 1595 1595 1595 1595 1595 1595 1595 1595 1595 1595 1596 1596 1596 1596 1596 1596 1596 1596 1596 1596 1596 1595 1595 1595 1594 1594
1558 1560 1561 1562 1564 1566 1567 1568 1569 1571 1572 1573 1573 1574 1575 1576 1576 1577 1577 1577 1578 1579 1579 1580 1582 1582 1582 1582 1583 1584 1585 1585 1586 1587 1588 1588 1588 1589 1590 1590 1591 1591 1592 1593 1594 1594 1592 1592 1593 1593 1592 1593 1593 1594 1594 1594 1594 1594 1594 1595 1595 1595 1595 1595 1595 1595 1595 1595 1596 1596 1596 1596 1596 1596 1596 1596 1596 1596 1595 1595 1595 1594 1594 1593 1593
1556 1557 1559 1560 1562 1563 1565 1566 1567 1569 1570 1571 1572 1573 1574 1574 1575 1575 1576 1576 1577 1577 1578 1579 1580 1581 1581 1582 1582 1583 1584 1585 1585 1586 1587 1588 1588 1589 1589 1590 1590 1590 1591 1592 1592 1593 1593 1592 1592 1593 1592 1593 1593 1593 1594 1594 1594 1594 1594 1595 1595 1595 1595 1595 1595 1595 1595 1595 1596 1596 1596 1596 1596 1596 1596 1595 1595 1595 1595 1594 1594 1594 1593 1593 1592
1554 1555 1556 1558 1559 1561 1562 1564 1565 1567 1568 1569 1571 1572 1573 1573 1573 1574 1574 1575 1576 1576 1577 1578 1579 1580 1580 1581 1582 1582 1583 1584 1585 1586 1587 1587 1587 1588 1589 1589 1590 1590 1590 1590 1591 1592 1592 1592 1592 1592 1592 1593 1593 1593 1593 1593 1594 1594 1594 1594 1595 1595 1595 1595 1595 1595 1595 1595 1595 1595 1595 1595 1595 1595 1595 1595 1595 1594 1594 1594 1593 1593 1592 1592 1591
1551 1552 1554 1556 1557 1559 1560 1562 1563 1565 1566 1568 1569 1570 1571 1572 1572 1572 1573 1574 1574 1575 1576 1577 1577 1578 1579 1580 1581 1582 1583 1584 1584 1585 1586 1586 1586 1587 1588 1588 1589 1589 1589 1590 1590 1590 1591 1591 1591 1591 1592 1593 1593 1593 1593 1593 1593 1594 1594 1594 1594 1594 1594 1594 1594 1594 1594 1594 1594 1594 1594 1595 1595 1595 1594 1594 1594 1593 1593 1593 1592 1592 1591 1590 1590
1549 1550 1552 1554 1555 1557 1558 1560 1561 1562 1564 1565 1567 1568 1569 1570 1571 1571 1572 1572 1573 1573 1574 1575 1576 1577 1578 1579 1580 1581 1582 1583 1584 1584 1585 1585 1585 1586 1587 1587 1588 1589 1589 1589 1589 1589 1590 1591 1591 1590 1591 1592 1592 1592 1592 1592 1592 1593 1593 1593 1593 1593 1593 1593 1593 1593 1593 1593 1594 1594 1594 1594 1594 1594 1594 1593 1593 1593 1592 1592 1591 1591 1590 1589 1588
1546 1548 1550 1552 1553 1554 1556 1557 1559 1560 1562 1563 1565 1566 1567 1568 1569 1570 1570 1570 1571 1572 1573 1574 1575 1575 1576 1577 1578 1579 1581 1582 1583 1583 1584 1585 1585 1585 1586 1586 1587 1588 1588 1588 1588 1588 1589 1590 1590 1589 1590 1590 1591 1591 1591 1591 1591 1591 1592 1592 1591 1591 1591 1592 1592 1592 1592 1592 1593 1593 1593 1593 1593 1593 1592 1592 1592 1592 1591 1591 1590 1589 1588 1587 1586
1544 1546 1548 1549 1551 1552 1553 1555 1556 1558 1559 1561 1562 1564 1565 1566 1567 1568 1569 1569 1569 1570 1571 1572 1573 1574 1575 1575 1576 1577 1579 1580 1582 1582 1583 1584 1584 1584 1584 1585 1585 1586 1587 1587 1587 1587 1588 1588 1589 1588 1588 1589 1590 1590 1589 1589 1590 1590 1590 1590 1590 1590 1590 1591 1591 1591 1591 1591 1591 1592 1592 1592 1591 1591 1591 1591 1591 1590 1590 1589 1588 1587 1586 1585 1584
1542 1544 1545 1547 1549 1550 1551 1552 1554 1556 1557 1559 1560 1562 1563 1564 1565 1566 1567 1568 1568 1568 1569 1570 1571 1573 1573 1573 1574 1576 1577 1578 1579 1580 1581 1582 1582 1583 1583 1583 1584 1584 1585 1585 1585 1586 1587 1587 1588 1587 1587 1588 1588 1588 1588 1588 1589 1589 1589 1589 1588 1588 1589 1589 1589 1589 1589 1590 1590 1590 1590 1590 1590 1590 1590 1590 1589 1589 1588 1587 1586 1585 1584 1583 1582
1539 1542 1543 1544 1546 1548 1549 1550 1551 1553 1555 1556 1558 1559 1560 1562 1563 1564 1565 1566 1566 1566 1567 1568 1569 1570 1571 1572 1572 1573 1575 1576 1577 1578 1579 1579 1580 1581 1581 1581 1582 1582 1583 1584 1584 1584 1585 1586 1586 1585 1585 1586 1586 1587 1587 1586 1587 1588 1587 1587 1587 1587 1587 1588 1588 1588 1588 1588 1588 1588 1588 1588 1588 1588 1588 1588 1588 1587 1586 1585 1584 1583 1582 1581 1580
1536 1538 1540 1542 1543 1544 1546 1548 1549 1550 1552 1554 1555 1556 1558 1559 1560 1561 1562 1563 1564 1564 1565 1566 1567 1568 1569 1570 1570 1571 1572 1574 1574 1576 1577 1577 1577 1578 1579 1579 1580 1580 1581 1582 1582 1583 1583 1584 1584 1584 1584 1585 1585 1585 1585 1585 1585 1586 1586 1586 1586 1586 1586 1586 1586 1586 1586 1586 1586 1587 1587 1587 1587 1587 1587 1586 1586 1585 1584 1583 1582 1581 1580 1579 1578
1532 1535 1537 1539 1540 1541 1543 1545 1546 1548 1549 1551 1552 1553 1554 1556 1557 1559 1560 1561 1562 1562 1563 1564 1564 1565 1566 1567 1568 1568 1569 1571 1572 1573 1574 1575 1575 1576 1577 1577 1578 1578 1579 1580 1580 1581 1582 1582 1583 1583 1582 1582 1583 1583 1584 1583 1583 1584 1584 1584 1584 1584 1584 1584 1584 1584 1584 1584 1585 1585 1585 1585 1585 1585 1585 1584 1584 1583 1582 1581 1580 1579 1578 1577 1576
1529 1531 1533 1536 1538 1539 1540 1542 1543 1545 1546 1547 1549 1550 1551 1552 1554 1555 1556 1557 1559 1560 1561 1561 1562 1563 1564 1564 1565 1566 1567 1568 1569 1570 1571 1572 1572 1573 1574 1575 1575 1576 1576 1577 1578 1579 1580 1580 1581 1582 1581 1580 1581 1581 1582 1582 1582 1582 1582 1583 1582 1582 1582 1582 1582 1582 1583 1583 1583 1583 1584 1583 1583 1583 1583 1582 1582 1581 1580 1579 1578 1576 1575 1574 1573
1526 1528 1530 1532 1535 1536 1537 1539 1540 1542 1543 1544 1546 1547 1547 1549 1550 1552 1553 1554 1555 1557 1558 1558 1559 1560 1561 1561 1562 1564 1564 1565 1565 1567 1568 1569 1570 1570 1571 1572 1573 1574 1574 1575 1576 1576 1577 1578 1579 1580 1580 1579 1579 1579 1579 1580 1580 1580 1580 1580 1581 1580 1580 1580 1580 1580 1580 1581 1581 1581 1581 1581 1581 1581 1581 1580 1579 1578 1577 1576 1575 1574 1573 1571 1570
1523 1525 1527 1529 1531 1532 1534 1535 1536 1538 1540 1541 1542 1544 1544 1545 1547 1548 1550 1551 1552 1553 1554 1555 1556 1557 1557 1558 1559 1561 1562 1562 1563 1564 1565 1566 1567 1567 1568 1569 1570 1571 1572 1572 1573 1574 1575 1576 1576 1577 1578 1578 1577 1577 1577 1577 1578 1578 1578 1578 1579 1578 1578 1578 1579 1578 1578 1579 1579 1579 1579 1579 1579 1578 1578 1578 1577 1576 1575 1574 1572 1571 1570 1569 1567
1519 1521 1523 1525 1527 1528 1530 1531 1533 1534 1536 1538 1539 1540 1541 1542 1543 1545 1547 1548 1549 1550 1551 1552 1553 1554 1555 1555 1556 1558 1559 1559 1560 1561 1562 1563 1564 1565 1565 1566 1567 1568 1569 1570 1570 1571 1572 1573 1574 1574 1575 1575 1576 1576 1576 1575 1576 1577 1576 1576 1576 1576 1576 1576 1576 1577 1576 1576 1577 1577 1577 1577 1576 1576 1576 1575 1575 1573 1572 1571 1570 1569 1567 1566 1565
1515 1518 1519 1521 1522 1524 1526 1528 1529 1530 1532 1534 1535 1536 1538 1539 1540 1542 1543 1545 1546 1547 1548 1549 1550 1551 1552 1553 1553 1554 1555 1556 1557 1558 1559 1560 1561 1562 1562 1563 1564 1565 1566 1567 1567 1568 1569 1570 1571 1572 1572 1573 1573 1573 1573 1573 1574 1574 1575 1575 1574 1574 1574 1574 1574 1575 1575 1574 1574 1575 1575 1574 1574 1573 1573 1572 1571 1570 1569 1568 1567 1566 1565 1564 1563
1511 1513 1515 1517 1518 1520 1522 1523 1525 1526 1528 1530 1531 1532 1534 1535 1536 1538 1539 1541 1542 1543 1544 1545 1546 1548 1549 1550 1550 1551 1551 1552 1553 1554 1555 1557 1558 1558 1559 1560 1561 1562 1562 1564 1564 1564 1566 1567 1568 1569 1569 1570 1570 1570 1571 1571 1572 1572 1572 1572 1572 1572 1573 1572 1572 1573 1573 1573 1572 1572 1573 1572 1572 1571 1570 1570 1569 1568 1567 1566 1565 1564 1563 1562 1561
1507 1509 1511 1513 1514 1516 1517 1519 1521 1522 1524 1525 1526 1528 1529 1531 1532 1533 1534 1536 1537 1538 1539 1541 1542 1543 1544 1545 1546 1546 1547 1547 1549 1550 1551 1552 1553 1554 1555 1556 1557 1558 1558 1560 1561 1561 1562 1563 1565 1566 1567 1567 1568 1568 1569 1569 1569 1568 1569 1569 1570 1570 1570 1571 1571 1571 1572 1571 1571 1570 1570 1570 1569 1569 1568 1567 1567 1566 1565 1564 1563 1562 1561 1560 1559
1503 1505 1508 1509 1510 1512 1513 1514 1516 1518 1519 1520 1521 1522 1524 1526 1528 1529 1530 1532 1533 1534 1535 1536 1537 1538 1539 1540 1540 1541 1541 1542 1543 1544 1546 1547 1548 1549 1551 1552 1553 1554 1554 1555 1556 1557 1558 1559 1560 1562 1563 1564 1564 1565 1565 1565 1565 1565 1566 1567 1567 1568 1568 1568 1568 1569 1569 1570 1569 1569 1569 1568 1567 1567 1566 1565 1564 1563 1562 1561 1561 1560 1559 1558 1557
1500 1501 1504 1506 1507 1507 1509 1510 1511 1512 1513 1514 1515 1517 1519 1521 1524 1525 1526 1527 1528 1530 1531 1531 1532 1533 1534 1535 1535 1535 1536 1537 1538 1539 1540 1542 1543 1545 1547 1548 1549 1550 1551 1551 1552 1553 1554 1555 1556 1558 1558 1559 1560 1561 1561 1561 1562 1563 1564 1564 1564 1565 1566 1566 1566 1566 1566 1567 1567 1567 1567 1566 1566 1565 1564 1563 1562 1561 1560 1559 1558 1558 1557 1556 1555
1496 1498 1500 1502 1503 1504 1504 1505 1506 1507 1508 1509 1510 1512 1514 1516 1519 1521 1522 1523 1523 1524 1525 1526 1527 1528 1529 1530 1530 1531 1532 1532 1533 1534 1535 1537 1538 1540 1543 1544 1545 1545 1546 1547 1548 1549 1550 1551 1552 1553 1554 1554 1556 1557 1557 1558 1559 1560 1560 1561 1562 1562 1563 1563 1563 1563 1564 1564 1564 1564 1564 1564 1564 1563 1562 1561 1560 1559 1557 1557 1556 1556 1555 1555 1554
1493 1494 1496 1497 1499 1501 1501 1501 1501 1502 1502 1504 1505 1507 1509 1511 1514 1516 1517 1518 1519 1519 1520 1521 1522 1523 1523 1524 1526 1527 1528 1528 1529 1530 1532 1533 1535 1537 1538 1540 1541 1541 1542 1543 1544 1545 1546 1547 1548 1548 1549 1550 1552 1553 1554 1555 1556 1557 1558 1558 1559 1559 1560 1560 1561 1561 1561 1561 1561 1561 1562 1562 1562 1560 1559 1558 1557 1556 1556 1555 1555 1555 1554 1553 1552
1489 1491 1492 1493 1495 1497 1497 1497 1497 1497 1498 1499 1500 1501 1503 1505 1508 1510 1512 1513 1514 1514 1514 1515 1517 1518 1518 1520 1521 1522 1523 1525 1527 1527 1528 1530 1531 1533 1534 1535 1536 1537 1538 1539 1540 1541 1542 1542 1543 1543 1544 1546 1547 1548 1550 1552 1553 1554 1554 1555 1556 1556 1556 1557 1557 1558 1558 1558 1558 1558 1559 1559 1559 1558 1557 1556 1556 1555 1555 1554 1554 1553 1552 1551 1550
1485 1486 1487 1489 1490 1491 1492 1493 1493 1493 1493 1494 1495 1496 1498 1500 1503 1505 1507 1508 1509 1509 1509 1510 1512 1512 1513 1515 1516 1517 1519 1520 1521 1522 1523 1524 1526 1528 1529 1530 1530 1531 1532 1534 1535 1536 1537 1538 1538 1539 1540 1542 1543 1545 1547 1549 1549 1550 1550 1551 1552 1553 1553 1554 1555 1556 1555 1555 1556 1556 1556 1556 1556 1555 1555 1555 1555 1554 1553 1552 1552 1551 1550 1549 1548
1479 1481 1483 1484 1485 1486 1487 1488 1489 1489 1489 1490 1491 1492 1493 1495 1498 1500 1502 1503 1504 1504 1505 1505 1506 1507 1508 1510 1511 1512 1513 1515 1515 1516 1517 1519 1520 1522 1523 1523 1523 1524 1525 1526 1528 1529 1531 1532 1533 1534 1536 1538 1539 1541 1543 1545 1545 1546 1547 1548 1549 1550 1550 1551 1552 1552 1552 1552 1553 1553 1553 1554 1553 1553 1552 1552 1553 1552 1551 1550 1549 1549 1548 1547 1546
1475 1477 1478 1479 1480 1481 1483 1484 1486 1485 1485 1487 1487 1488 1489 1491 1494 1495 1497 1498 1499 1499 1499 1500 1501 1502 1503 1504 1506 1507 1508 1509 1510 1510 1512 1514 1516 1516 1517 1517 1517 1518 1518 1519 1522 1524 1525 1527 1528 1530 1532 1533 1535 1537 1539 1540 1541 1542 1543 1544 1545 1546 1546 1547 1548 1548 1549 1550 1550 1550 1551 1551 1551 1550 1550 1550 1550 1550 1549 1548 1547 1546 1546 1545 1544
1471 1472 1474 1475 1476 1478 1479 1480 1480 1480 1481 1483 1484 1484 1485 1486 1488 1490 1491 1493 1494 1493 1493 1495 1496 1497 1498 1499 1500 1501 1502 1503 1504 1505 1507 1508 1510 1510 1510 1510 1512 1513 1514 1515 1517 1518 1520 1522 1524 1526 1528 1529 1530 1532 1534 1535 1536 1537 1539 1539 1540 1541 1541 1542 1543 1544 1546 1547 1547 1548 1548 1548 1548 1547 1547 1547 1546 1546 1546 1545 1544 1544 1544 1543 1543
1467 1469 1470 1472 1473 1474 1474 1475 1475 1476 1477 1479 1480 1480 1481 1482 1483 1484 1486 1488 1489 1488 1488 1490 1491 1492 1493 1493 1495 1495 1495 1496 1498 1500 1502 1502 1503 1503 1503 1505 1507 1508 1508 1510 1512 1513 1515 1517 1520 1522 1524 1525 1525 1527 1529 1530 1531 1532 1533 1534 1535 1537 1537 1537 1538 1540 1542 1543 1543 1544 1545 1545 1545 1544 1544 1544 1543 1543 1544 1543 1542 1541 1541 1541 1541
1464 1467 1468 1468 1469 1470 1470 1471 1472 1472 1473 1474 1476 1476 1477 1479 1480 1480 1483 1484 1483 1482 1483 1485 1487 1487 1488 1488 1489 1488 1489 1491 1494 1495 1496 1496 1496 1497 1498 1500 1500 1499 1500 1504 1506 1507 1509 1511 1514 1516 1517 1518 1520 1521 1523 1525 1525 1526 1527 1529 1531 1532 1533 1533 1534 1536 1537 1538 1540 1541 1541 1542 1542 1542 1542 1541 1541 1540 1541 1541 1540 1539 1539 1539 1538